Ft Lauderdale, FL

7:13 AM EDT on May 25, 2017 (GMT -0400)
Fort Lauderdale-Hollywood International

Weather History for KFLL - December, 2013

Change the Weather History Date:

Tuesday, December 10, 2013

  Actual Average Record
Temperature  
Mean Temperature 78 °F 72 °F  
Max Temperature 82 °F 79 °F 87 °F (2009)
Min Temperature 74 °F 65 °F 32 °F (1917)
Degree Days  
Heating Degree Days 0 1  
Month to date heating degree days 0 5  
Since 1 July heating degree days 4 7  
Cooling Degree Days 13 8  
Month to date cooling degree days 91 81  
Year to date cooling degree days 4443 4594  
Growing Degree Days 28 (Base 50)    
Moisture  
Dew Point 70 °F    
Average Humidity 74    
Maximum Humidity 82    
Minimum Humidity 65    
Precipitation  
Precipitation 0.00 in 0.08 in 4.73 in (2000)
Month to date precipitation 0.78 0.85  
Year to date precipitation 76.04 60.57  
Snow  
Snow 0.00 in - - ()
Month to date snowfall 0.0  
Since 1 July snowfall 0.0  
Snow Depth 0.00 in    
Sea Level Pressure  
Sea Level Pressure 30.13 in    
Wind  
Wind Speed 9 mph (SE)    
Max Wind Speed 16 mph    
Max Gust Speed 21 mph    
Visibility 10 miles    
Events      
T = Trace of Precipitation, MM = Missing Value Source: NWS Daily Summary

Daily Weather History Graph

Daily Weather History Graph

Search for Another Location

Airport or City:

Trip Planner

Search our weather history database for the weather conditions in past years. The results will help you decide how hot, cold, wet, or windy it might be!

Date:

Astronomy

Dec. 10, 2013 Rise Set
Actual Time 6:57 AM EST 5:29 PM EST
Civil Twilight 6:32 AM EST 5:55 PM EST
Nautical Twilight 6:03 AM EST 6:23 PM EST
Astronomical Twilight 5:35 AM EST 6:51 PM EST
Moon 1:01 PM EST (12/10) 12:46 AM EST (12/10)
Length of Visible Light 11h 23m
Length of Day
10h 32m
First Quarter, 61% of the Moon is Illuminated
Dec 10
First Quarter
Dec 17
Full
Dec 25
Last Quarter
Jan 1
New
Jan 7
First Quarter

Hourly Weather History & Observations

Time (EST) Temp. Heat Index Dew Point Humidity Pressure Visibility Wind Dir Wind Speed Gust Speed Precip Events Conditions
12:53 AM 75.9 °F - 69.1 °F 79% 30.12 in 10.0 mi SE 13.8 mph - N/A   Partly Cloudy
1:53 AM 75.9 °F - 69.1 °F 79% 30.11 in 10.0 mi SE 9.2 mph - N/A   Scattered Clouds
2:53 AM 75.9 °F - 69.1 °F 79% 30.11 in 10.0 mi SE 11.5 mph - N/A   Scattered Clouds
3:53 AM 75.9 °F - 69.1 °F 79% 30.11 in 10.0 mi SE 9.2 mph - N/A   Mostly Cloudy
4:53 AM 75.0 °F - 69.1 °F 82% 30.11 in 10.0 mi SE 9.2 mph - N/A   Mostly Cloudy
5:53 AM 75.0 °F - 69.1 °F 82% 30.12 in 10.0 mi SSE 9.2 mph - N/A   Partly Cloudy
6:53 AM 75.0 °F - 69.1 °F 82% 30.13 in 10.0 mi SE 8.1 mph - N/A   Partly Cloudy
7:53 AM 75.9 °F - 69.1 °F 79% 30.15 in 10.0 mi SE 5.8 mph - N/A   Partly Cloudy
8:53 AM 79.0 °F - 70.0 °F 74% 30.16 in 10.0 mi SE 10.4 mph - N/A   Partly Cloudy
9:53 AM 80.1 °F 83.2 °F 70.0 °F 71% 30.17 in 10.0 mi SE 13.8 mph 18.4 mph N/A   Partly Cloudy
10:53 AM 80.1 °F 83.2 °F 70.0 °F 71% 30.15 in 10.0 mi SE 10.4 mph - N/A   Mostly Cloudy
11:53 AM 81.0 °F 84.1 °F 69.1 °F 67% 30.15 in 10.0 mi SSE 10.4 mph - N/A   Mostly Cloudy
12:53 PM 82.0 °F 85.9 °F 70.0 °F 67% 30.12 in 10.0 mi SSE 12.7 mph - N/A   Scattered Clouds
1:53 PM 82.0 °F 85.9 °F 70.0 °F 67% 30.10 in 10.0 mi SE 10.4 mph - N/A   Scattered Clouds
2:53 PM 81.0 °F 84.1 °F 69.1 °F 67% 30.09 in 10.0 mi SE 10.4 mph - N/A   Scattered Clouds
3:53 PM 80.1 °F 83.6 °F 71.1 °F 74% 30.09 in 10.0 mi SE 10.4 mph - N/A   Partly Cloudy
4:53 PM 79.0 °F - 70.0 °F 74% 30.09 in 10.0 mi SE 10.4 mph - N/A   Partly Cloudy
5:53 PM 78.1 °F - 71.1 °F 79% 30.11 in 10.0 mi SE 5.8 mph - N/A   Partly Cloudy
6:53 PM 78.1 °F - 71.1 °F 79% 30.12 in 10.0 mi SE 6.9 mph - N/A   Clear
7:53 PM 77.0 °F - 72.0 °F 84% 30.14 in 10.0 mi SE 5.8 mph - N/A   Clear
8:53 PM 77.0 °F - 72.0 °F 84% 30.15 in 10.0 mi SE 8.1 mph - N/A   Partly Cloudy
9:53 PM 77.0 °F - 72.0 °F 84% 30.16 in 10.0 mi SE 6.9 mph - N/A   Clear
10:53 PM 77.0 °F - 72.0 °F 84% 30.16 in 10.0 mi ESE 4.6 mph - N/A   Clear
11:53 PM 75.9 °F - 72.0 °F 87% 30.15 in 10.0 mi ESE 4.6 mph - N/A   Partly Cloudy